When you browse on this site, cookies collect data to enhance your experience and personalize the content and advertising you see.
Visit our Privacy Policy to learn more. By continuing to use the site, you agree to this use of cookies and data.
  • In Portugal
  • List of Countries
  • For 7 days
  • Water Temperature
  • Satellite Maps
  • Weather Map
  • Weather Widgets
  • user-avatar
    Login

    Hourly Weather Olszyniec

    Today, 15 December, Saturday

    Time Temperature Precipitation Wind Pressure Humidity
    00:00 -5°C° 0 mm 2 mps 726 mmHg 88%
    01:00 -5°C° 0 mm 2 mps 726 mmHg 89%
    02:00 -6°C° 0 mm 3 mps 726 mmHg 89%
    03:00 -6°C° 0 mm 3 mps 726 mmHg 89%
    04:00 -6°C° 0 mm 3 mps 726 mmHg 90%
    05:00 -6°C° 0.1 mm 3 mps 726 mmHg 90%
    06:00 -5°C° 0.1 mm 3 mps 726 mmHg 90%
    07:00 -5°C° 0.1 mm 3 mps 726 mmHg 90%
    08:00 -5°C° 0 mm 3 mps 726 mmHg 88%
    09:00 -5°C° 0 mm 3 mps 726 mmHg 87%
    10:00 -4°C° 0 mm 3 mps 726 mmHg 85%
    11:00 -4°C° 0 mm 4 mps 726 mmHg 83%
    12:00 -4°C° 0 mm 4 mps 726 mmHg 80%
    13:00 -4°C° 0 mm 4 mps 726 mmHg 78%
    14:00 -4°C° 0 mm 3 mps 726 mmHg 80%
    15:00 -5°C° 0 mm 3 mps 725 mmHg 82%
    16:00 -5°C° 0 mm 3 mps 725 mmHg 83%
    17:00 -5°C° 0 mm 3 mps 725 mmHg 85%
    18:00 -6°C° 0 mm 3 mps 725 mmHg 86%
    19:00 -6°C° 0 mm 3 mps 725 mmHg 87%
    20:00 -5°C° 0 mm 2 mps 725 mmHg 88%
    21:00 -5°C° 0 mm 2 mps 724 mmHg 88%
    22:00 -5°C° 0 mm 2 mps 724 mmHg 89%
    23:00 -5°C° 0 mm 2 mps 724 mmHg 89%

    Tomorrow, 16 December, Sunday

    Time Temperature Precipitation Wind Pressure Humidity
    00:00 -6°C° 0 mm 2 mps 723 mmHg 90%
    01:00 -6°C° 0 mm 2 mps 723 mmHg 90%
    02:00 -6°C° 0 mm 2 mps 723 mmHg 90%
    03:00 -6°C° 0 mm 2 mps 722 mmHg 90%
    04:00 -6°C° 0 mm 2 mps 722 mmHg 90%
    05:00 -4°C° 0 mm 1 mps 722 mmHg 90%
    06:00 -4°C° 0 mm 1 mps 721 mmHg 90%
    07:00 -4°C° 0 mm 1 mps 721 mmHg 90%
    08:00 -4°C° 0 mm 1 mps 721 mmHg 88%
    09:00 -5°C° 0 mm 2 mps 721 mmHg 85%
    10:00 -5°C° 0 mm 2 mps 721 mmHg 83%
    11:00 -4°C° 0 mm 2 mps 721 mmHg 80%
    12:00 -4°C° 0 mm 2 mps 720 mmHg 76%
    13:00 -3°C° 0 mm 2 mps 720 mmHg 73%
    14:00 -4°C° 0 mm 2 mps 720 mmHg 76%
    15:00 -4°C° 0 mm 2 mps 719 mmHg 79%
    16:00 -5°C° 0 mm 2 mps 719 mmHg 82%
    17:00 -5°C° 0 mm 2 mps 719 mmHg 82%
    18:00 -6°C° 0 mm 3 mps 719 mmHg 81%
    19:00 -6°C° 0 mm 3 mps 720 mmHg 80%
    20:00 -6°C° 0 mm 3 mps 720 mmHg 80%
    21:00 -5°C° 0 mm 3 mps 720 mmHg 79%
    22:00 -5°C° 0 mm 3 mps 720 mmHg 79%
    23:00 -6°C° 0 mm 3 mps 720 mmHg 81%

    Day after tomorrow, 17 December, Monday

    Time Temperature Precipitation Wind Pressure Humidity
    00:00 -5°C° 0 mm 2 mps 720 mmHg 83%
    01:00 -5°C° 0 mm 2 mps 720 mmHg 85%
    02:00 -5°C° 0 mm 2 mps 720 mmHg 85%
    03:00 -5°C° 0 mm 2 mps 720 mmHg 85%
    04:00 -4°C° 0 mm 2 mps 721 mmHg 85%
    05:00 -4°C° 0 mm 2 mps 721 mmHg 86%
    06:00 -5°C° 0 mm 2 mps 721 mmHg 87%
    07:00 -5°C° 0 mm 2 mps 721 mmHg 88%
    08:00 -4°C° 0 mm 2 mps 722 mmHg 86%
    09:00 -1°C° 0 mm 1 mps 722 mmHg 84%
    10:00 -1°C° 0 mm 1 mps 723 mmHg 82%
    11:00 0°C° 0 mm 1 mps 723 mmHg 81%
    12:00 +1°C° 0 mm 1 mps 723 mmHg 80%
    13:00 +2°C° 0 mm 1 mps 723 mmHg 79%
    14:00 +1°C° 0 mm 1 mps 724 mmHg 81%
    15:00 0°C° 0 mm 1 mps 724 mmHg 84%
    16:00 -1°C° 0 mm 1 mps 724 mmHg 87%
    17:00 -1°C° 0 mm 1 mps 724 mmHg 87%
    18:00 -1°C° 0 mm 1 mps 725 mmHg 87%
    19:00 -1°C° 0 mm 1 mps 725 mmHg 87%
    20:00 -1°C° 0 mm 1 mps 726 mmHg 87%
    21:00 -1°C° 0 mm 1 mps 726 mmHg 87%
    22:00 -1°C° 0 mm 1 mps 726 mmHg 86%
    23:00 -1°C° 0 mm 1 mps 726 mmHg 86%

    18 December, Tuesday

    Time Temperature Precipitation Wind Pressure Humidity
    00:00 -3°C° 0 mm 2 mps 727 mmHg 86%
    01:00 -3°C° 0 mm 2 mps 727 mmHg 86%
    02:00 -4°C° 0 mm 2 mps 727 mmHg 87%
    03:00 -4°C° 0 mm 2 mps 727 mmHg 87%
    04:00 -4°C° 0 mm 2 mps 726 mmHg 87%
    05:00 -2°C° 0 mm 1 mps 727 mmHg 87%
    06:00 -2°C° 0 mm 1 mps 727 mmHg 88%
    07:00 -2°C° 0 mm 1 mps 727 mmHg 88%
    08:00 -1°C° 0 mm 1 mps 727 mmHg 86%
    09:00 0°C° 0 mm 1 mps 727 mmHg 85%
    10:00 0°C° 0 mm 1 mps 727 mmHg 83%
    11:00 +1°C° 0 mm 1 mps 727 mmHg 83%
    12:00 +2°C° 0 mm 1 mps 727 mmHg 82%
    13:00 +1°C° 0 mm 0 mps 727 mmHg 81%
    14:00 0°C° 0 mm 0 mps 727 mmHg 83%
    15:00 0°C° 0 mm 0 mps 726 mmHg 86%
    16:00 0°C° 0 mm 1 mps 726 mmHg 89%
    17:00 -1°C° 0 mm 0 mps 726 mmHg 89%
    18:00 -2°C° 0 mm 0 mps 726 mmHg 89%
    19:00 -2°C° 0 mm 0 mps 726 mmHg 90%
    20:00 -2°C° 0 mm 0 mps 726 mmHg 90%
    21:00 -1°C° 0 mm 1 mps 726 mmHg 90%
    22:00 -1°C° 0 mm 1 mps 725 mmHg 90%
    23:00 -1°C° 0 mm 1 mps 725 mmHg 90%

    19 December, Wednesday

    Time Temperature Precipitation Wind Pressure Humidity
    00:00 -1°C° 0 mm 1 mps 725 mmHg 91%
    01:00 -2°C° 0 mm 1 mps 725 mmHg 91%
    02:00 -2°C° 0 mm 1 mps 724 mmHg 91%
    03:00 -2°C° 0 mm 1 mps 724 mmHg 91%
    04:00 -2°C° 0 mm 1 mps 724 mmHg 91%
    05:00 -2°C° 0 mm 1 mps 724 mmHg 91%
    06:00 -2°C° 0 mm 1 mps 724 mmHg 90%
    07:00 -2°C° 0 mm 1 mps 724 mmHg 90%
    08:00 -3°C° 0 mm 2 mps 724 mmHg 88%
    09:00 -3°C° 0 mm 2 mps 724 mmHg 86%
    10:00 -2°C° 0 mm 2 mps 724 mmHg 84%
    11:00 -1°C° 0 mm 2 mps 724 mmHg 83%
    12:00 -1°C° 0 mm 2 mps 724 mmHg 82%
    13:00 +1°C° 0 mm 2 mps 724 mmHg 81%
    14:00 -1°C° 0 mm 2 mps 723 mmHg 84%
    15:00 -2°C° 0 mm 2 mps 723 mmHg 87%
    16:00 -3°C° 0 mm 2 mps 723 mmHg 90%
    17:00 -3°C° 0 mm 2 mps 723 mmHg 90%
    18:00 -3°C° 0 mm 2 mps 723 mmHg 90%
    19:00 -4°C° 0 mm 2 mps 723 mmHg 91%
    20:00 -4°C° 0 mm 2 mps 723 mmHg 91%
    21:00 -4°C° 0 mm 2 mps 723 mmHg 91%
    22:00 -4°C° 0 mm 2 mps 723 mmHg 91%
    23:00 -4°C° 0 mm 2 mps 723 mmHg 91%

    20 December, Thursday

    Time Temperature Precipitation Wind Pressure Humidity
    00:00 -4°C° 0 mm 2 mps 723 mmHg 91%
    01:00 -4°C° 0 mm 2 mps 723 mmHg 91%
    02:00 -4°C° 0 mm 2 mps 723 mmHg 90%
    03:00 -4°C° 0 mm 2 mps 722 mmHg 90%
    04:00 -4°C° 0 mm 2 mps 722 mmHg 89%
    05:00 -4°C° 0 mm 2 mps 722 mmHg 88%
    06:00 -4°C° 0 mm 2 mps 723 mmHg 87%
    07:00 -4°C° 0 mm 2 mps 723 mmHg 86%
    08:00 -4°C° 0 mm 3 mps 723 mmHg 84%
    09:00 -4°C° 0 mm 3 mps 723 mmHg 82%
    10:00 -4°C° 0 mm 3 mps 723 mmHg 80%
    11:00 -2°C° 0 mm 3 mps 723 mmHg 79%
    12:00 -2°C° 0 mm 3 mps 723 mmHg 78%
    13:00 -2°C° 0 mm 3 mps 723 mmHg 77%
    14:00 -2°C° 0 mm 2 mps 722 mmHg 79%
    15:00 -3°C° 0 mm 2 mps 722 mmHg 82%
    16:00 -3°C° 0 mm 2 mps 722 mmHg 84%
    17:00 -3°C° 0 mm 2 mps 722 mmHg 85%
    18:00 -4°C° 0 mm 2 mps 722 mmHg 85%
    19:00 -4°C° 0 mm 2 mps 722 mmHg 86%
    20:00 -4°C° 0 mm 2 mps 722 mmHg 86%
    21:00 -4°C° 0 mm 2 mps 722 mmHg 86%
    22:00 -4°C° 0 mm 2 mps 722 mmHg 86%
    23:00 -4°C° 0 mm 2 mps 722 mmHg 87%
    Show more